| time (UTC) | temp F | wind direction | speed MPH | gust MPH | rain 1hr in | rain 24hr in | rain mn in | humidity % | barometer mb |
| 20260510130138 | 67 | 82 | 2.0 | 6.0 | 0.00 | 1.43 | 0.00 | 96 | 1016.8 |
| 20260510125639 | 67 | 69 | 2.0 | 6.0 | 0.00 | 1.44 | 0.00 | 96 | 1016.8 |
| 20260510125139 | 67 | 30 | 2.0 | 7.0 | 0.00 | 1.46 | 0.00 | 96 | 1016.8 |
| 20260510124644 | 66 | 78 | 2.0 | 5.0 | 0.00 | 1.47 | 0.00 | 96 | 1016.7 |
| 20260510124639 | 67 | 76 | 2.0 | 7.0 | 0.00 | 1.47 | 0.00 | 96 | 1016.7 |
| 20260510123637 | 66 | 70 | 2.0 | 5.0 | 0.00 | 1.48 | 0.00 | 96 | 1016.6 |
| 20260510123136 | 66 | 75 | 2.0 | 4.0 | 0.00 | 1.48 | 0.00 | 96 | 1016.6 |
| 20260510122636 | 66 | 22 | 2.0 | 4.0 | 0.00 | 1.54 | 0.00 | 96 | 1016.4 |
| 20260510122134 | 66 | 76 | 2.0 | 4.0 | 0.00 | 1.55 | 0.00 | 96 | 1016.4 |
| 20260510121636 | 66 | 88 | 2.0 | 4.0 | 0.00 | 1.57 | 0.00 | 96 | 1016.4 |
| 20260510121134 | 66 | 63 | 2.0 | 4.0 | 0.00 | 1.58 | 0.00 | 96 | 1016.3 |
| 20260510120634 | 66 | 45 | 2.0 | 4.0 | 0.00 | 1.58 | 0.00 | 96 | 1016.1 |
| 20260510120400 | 66 | 70 | 2.0 | 4.0 | 0.00 | 1.58 | 0.00 | 96 | 1016.1 |
| 20260510115630 | 66 | 64 | 2.0 | 4.0 | 0.00 | 1.60 | 0.00 | 96 | 1015.9 |
| 20260510115405 | 66 | 22 | 2.0 | 4.0 | 0.00 | 1.61 | 0.00 | 96 | 1016.0 |
| 20260510114631 | 66 | 78 | 2.0 | 4.0 | 0.00 | 1.62 | 0.00 | 96 | 1015.9 |
| 20260510114129 | 66 | 68 | 2.0 | 5.0 | 0.00 | 1.62 | 0.00 | 96 | 1015.7 |
| 20260510113629 | 66 | 75 | 2.0 | 5.0 | 0.00 | 1.62 | 0.00 | 96 | 1015.7 |
| 20260510113122 | 66 | 71 | 1.0 | 4.0 | 0.00 | 1.62 | 0.00 | 96 | 1015.5 |
| 20260510112620 | 66 | 86 | 1.0 | 4.0 | 0.00 | 1.62 | 0.00 | 96 | 1015.5 |
| 20260510112119 | 65 | 61 | 1.0 | 4.0 | 0.00 | 1.62 | 0.00 | 95 | 1015.3 |
| 20260510111617 | 66 | 74 | 3.0 | 5.0 | 0.00 | 1.62 | 0.00 | 95 | 1015.3 |
| 20260510111116 | 66 | 55 | 2.0 | 5.0 | 0.00 | 1.62 | 0.00 | 95 | 1015.1 |
| 20260510110840 | 66 | 78 | 1.0 | 4.0 | 0.00 | 1.62 | 0.00 | 95 | 1015.1 |
| 20260510110341 | 66 | 75 | 2.0 | 6.0 | 0.00 | 1.62 | 0.00 | 95 | 1015.0 |
| 20260510105610 | 66 | 78 | 2.0 | 6.0 | 0.00 | 1.62 | 0.00 | 95 | 1014.9 |
| 20260510105110 | 66 | 73 | 1.0 | 4.0 | 0.00 | 1.62 | 0.00 | 95 | 1014.9 |
| 20260510104609 | 66 | 73 | 1.0 | 6.0 | 0.00 | 1.62 | 0.00 | 95 | 1014.8 |
| 20260510104108 | 66 | 61 | 2.0 | 6.0 | 0.00 | 1.62 | 0.00 | 95 | 1014.7 |
| 20260510103603 | 66 | 77 | 2.0 | 5.0 | 0.00 | 1.62 | 0.00 | 95 | 1014.6 |
| 20260510103102 | 66 | 60 | 2.0 | 5.0 | 0.00 | 1.62 | 0.00 | 95 | 1014.5 |
| 20260510102601 | 66 | 51 | 2.0 | 5.0 | 0.00 | 1.62 | 0.00 | 95 | 1014.6 |
| 20260510102102 | 66 | 92 | 2.0 | 5.0 | 0.00 | 1.62 | 0.00 | 95 | 1014.5 |
| 20260510101602 | 66 | 78 | 2.0 | 6.0 | 0.00 | 1.62 | 0.00 | 95 | 1014.4 |
| 20260510101336 | 66 | 86 | 3.0 | 6.0 | 0.00 | 1.62 | 0.00 | 95 | 1014.3 |
| 20260510100601 | 66 | 80 | 2.0 | 6.0 | 0.00 | 1.62 | 0.00 | 95 | 1014.3 |
| 20260510100059 | 66 | 88 | 2.0 | 4.0 | 0.00 | 1.62 | 0.00 | 95 | 1014.4 |
| 20260510095556 | 66 | 71 | 2.0 | 4.0 | 0.00 | 1.62 | 0.00 | 95 | 1014.3 |
| 20260510095054 | 66 | 59 | 2.0 | 4.0 | 0.00 | 1.62 | 0.00 | 95 | 1014.2 |
| 20260510094553 | 66 | 98 | 3.0 | 4.0 | 0.00 | 1.62 | 0.00 | 95 | 1014.1 |
| 20260510094054 | 66 | 74 | 2.0 | 4.0 | 0.00 | 1.62 | 0.00 | 95 | 1014.0 |
| 20260510093547 | 66 | 101 | 2.0 | 4.0 | 0.00 | 1.62 | 0.00 | 95 | 1013.9 |
| 20260510093047 | 67 | 100 | 2.0 | 4.0 | 0.00 | 1.62 | 0.00 | 95 | 1013.8 |
| 20260510092547 | 67 | 76 | 2.0 | 4.0 | 0.00 | 1.62 | 0.00 | 95 | 1013.8 |
| 20260510092047 | 67 | 109 | 2.0 | 4.0 | 0.00 | 1.62 | 0.00 | 95 | 1013.7 |
| 20260510091547 | 67 | 96 | 1.0 | 3.0 | 0.00 | 1.62 | 0.00 | 95 | 1013.7 |
| 20260510091046 | 67 | 92 | 1.0 | 3.0 | 0.00 | 1.62 | 0.00 | 95 | 1013.7 |
| 20260510090540 | 67 | 92 | 2.0 | 4.0 | 0.00 | 1.62 | 0.00 | 95 | 1013.7 |
| 20260510090039 | 67 | 79 | 1.0 | 4.0 | 0.00 | 1.62 | 0.00 | 95 | 1013.7 |
| 20260510085537 | 67 | 99 | 1.0 | 3.0 | 0.00 | 1.62 | 0.00 | 95 | 1013.8 |
| 20260510085035 | 67 | 82 | 2.0 | 4.0 | 0.00 | 1.62 | 0.00 | 95 | 1013.8 |
| 20260510084536 | 67 | 107 | 2.0 | 4.0 | 0.00 | 1.62 | 0.00 | 95 | 1013.8 |
| 20260510084259 | 67 | 63 | 2.0 | 4.0 | 0.00 | 1.62 | 0.00 | 95 | 1013.8 |
| 20260510083527 | 67 | 93 | 2.0 | 4.0 | 0.00 | 1.62 | 0.00 | 95 | 1013.8 |
| 20260510083029 | 67 | 103 | 1.0 | 3.0 | 0.00 | 1.62 | 0.00 | 95 | 1013.8 |
| 20260510082529 | 67 | 85 | 2.0 | 3.0 | 0.00 | 1.62 | 0.00 | 95 | 1013.8 |
| 20260510082030 | 67 | 79 | 2.0 | 4.0 | 0.00 | 1.62 | 0.00 | 95 | 1013.9 |
| 20260510081530 | 67 | 100 | 1.0 | 4.0 | 0.00 | 1.62 | 0.00 | 95 | 1013.9 |
| 20260510081254 | 67 | 51 | 1.0 | 3.0 | 0.00 | 1.62 | 0.00 | 95 | 1014.0 |
| 20260510080521 | 67 | 82 | 1.0 | 3.0 | 0.00 | 1.62 | 0.00 | 95 | 1013.9 |
| 20260510080018 | 67 | 82 | 1.0 | 2.0 | 0.00 | 1.62 | 0.00 | 95 | 1013.8 |
| 20260510075517 | 67 | 58 | 2.0 | 3.0 | 0.00 | 1.62 | 0.00 | 95 | 1013.8 |
| 20260510075016 | 67 | 75 | 2.0 | 3.0 | 0.00 | 1.62 | 0.00 | 95 | 1013.7 |
| 20260510074515 | 67 | 75 | 1.0 | 3.0 | 0.00 | 1.62 | 0.00 | 95 | 1013.8 |
| 20260510074012 | 67 | 72 | 1.0 | 3.0 | 0.00 | 1.62 | 0.00 | 95 | 1013.8 |
| 20260510073513 | 67 | 14 | 0.0 | 2.0 | 0.00 | 1.62 | 0.00 | 95 | 1013.9 |
| 20260510073013 | 67 | 44 | 0.0 | 2.0 | 0.00 | 1.62 | 0.00 | 95 | 1013.7 |
| 20260510072510 | 67 | 71 | 0.0 | 2.0 | 0.00 | 1.62 | 0.00 | 95 | 1013.7 |
| 20260510072012 | 67 | 13 | 0.0 | 2.0 | 0.00 | 1.62 | 0.00 | 95 | 1013.6 |
| 20260510071735 | 67 | 13 | 0.0 | 2.0 | 0.00 | 1.62 | 0.00 | 95 | 1013.6 |
| 20260510071003 | 67 | 13 | 0.0 | 2.0 | 0.00 | 1.62 | 0.00 | 95 | 1013.5 |
| 20260510070500 | 66 | 77 | 0.0 | 2.0 | 0.00 | 1.62 | 0.00 | 95 | 1013.5 |
| 20260510065958 | 66 | 77 | 1.0 | 3.0 | 0.00 | 1.62 | 0.00 | 95 | 1013.4 |
| 20260510065500 | 66 | 77 | 1.0 | 3.0 | 0.00 | 1.62 | 0.00 | 95 | 1013.5 |
| 20260510065227 | 66 | 51 | 0.0 | 2.0 | 0.00 | 1.62 | 0.00 | 95 | 1013.5 |
| 20260510064455 | 66 | 51 | 0.0 | 2.0 | 0.00 | 1.62 | 0.00 | 95 | 1013.5 |
| 20260510063957 | 66 | 51 | 0.0 | 2.0 | 0.00 | 1.62 | 0.00 | 95 | 1013.6 |
| 20260510063450 | 66 | 51 | 0.0 | 2.0 | 0.00 | 1.62 | 0.00 | 95 | 1013.6 |
| 20260510062947 | 66 | 51 | 0.0 | 2.0 | 0.00 | 1.62 | 0.00 | 95 | 1013.6 |
| 20260510062453 | 66 | 51 | 0.0 | 2.0 | 0.00 | 1.62 | 0.00 | 95 | 1013.6 |
| 20260510061946 | 66 | 86 | 0.0 | 2.0 | 0.00 | 1.62 | 0.00 | 95 | 1013.6 |
| 20260510061445 | 66 | 86 | 0.0 | 2.0 | 0.00 | 1.62 | 0.00 | 95 | 1013.7 |
| 20260510060946 | 65 | 86 | 0.0 | 2.0 | 0.00 | 1.62 | 0.00 | 95 | 1013.8 |
| 20260510060716 | 65 | 86 | 0.0 | 2.0 | 0.00 | 1.62 | 0.00 | 94 | 1013.7 |
| 20260510055945 | 65 | 86 | 1.0 | 2.0 | 0.00 | 1.62 | 0.00 | 94 | 1013.7 |
| 20260510055446 | 66 | 86 | 0.0 | 2.0 | 0.00 | 1.62 | 0.00 | 94 | 1013.6 |
| 20260510054946 | 66 | 86 | 0.0 | 2.0 | 0.00 | 1.62 | 0.00 | 95 | 1013.6 |
| 20260510054446 | 66 | 86 | 1.0 | 2.0 | 0.00 | 1.62 | 0.00 | 94 | 1013.7 |
| 20260510053941 | 66 | 86 | 1.0 | 2.0 | 0.00 | 1.62 | 0.00 | 94 | 1013.5 |
| 20260510053441 | 66 | 23 | 1.0 | 2.0 | 0.00 | 1.62 | 0.00 | 94 | 1014.1 |
| 20260510052941 | 66 | 23 | 1.0 | 2.0 | 0.00 | 1.62 | 0.00 | 94 | 1013.6 |
| 20260510052442 | 66 | 23 | 1.0 | 2.0 | 0.00 | 1.62 | 0.00 | 94 | 1013.7 |
| 20260510051944 | 66 | 23 | 0.0 | 2.0 | 0.00 | 1.62 | 0.00 | 94 | 1013.8 |
| 20260510051442 | 66 | 17 | 0.0 | 2.0 | 0.00 | 1.62 | 0.00 | 94 | 1013.8 |
| 20260510050950 | 66 | 17 | 1.0 | 2.0 | 0.00 | 1.62 | 0.00 | 94 | 1013.6 |
| 20260510050437 | 66 | 104 | 0.0 | 2.0 | 0.00 | 1.62 | 0.00 | 93 | 1013.5 |
| 20260510045934 | 67 | 104 | 1.0 | 2.0 | 0.00 | 1.62 | 1.62 | 94 | 1013.6 |
| 20260510045708 | 67 | 104 | 1.0 | 2.0 | 0.00 | 1.62 | 1.62 | 94 | 1013.4 |
| 20260510044934 | 67 | 40 | 1.0 | 2.0 | 0.00 | 1.62 | 1.62 | 94 | 1013.5 |
| 20260510044433 | 67 | 40 | 0.0 | 2.0 | 0.00 | 1.62 | 1.62 | 94 | 1013.7 |
| 20260510043933 | 67 | 40 | 0.0 | 2.0 | 0.00 | 1.62 | 1.62 | 94 | 1013.8 |
| 20260510043432 | 67 | 40 | 0.0 | 2.0 | 0.00 | 1.62 | 1.62 | 94 | 1013.9 |
| 20260510043204 | 67 | 40 | 0.0 | 2.0 | 0.00 | 1.62 | 1.62 | 93 | 1013.9 |
| 20260510042433 | 67 | 40 | 0.0 | 2.0 | 0.00 | 1.62 | 1.62 | 93 | 1013.9 |
| 20260510041933 | 67 | 40 | 0.0 | 2.0 | 0.00 | 1.62 | 1.62 | 93 | 1014.0 |
| 20260510041434 | 67 | 40 | 0.0 | 2.0 | 0.00 | 1.62 | 1.62 | 93 | 1014.0 |
| 20260510040931 | 67 | 40 | 0.0 | 2.0 | 0.00 | 1.62 | 1.62 | 93 | 1013.9 |
| 20260510040431 | 67 | 28 | 0.0 | 2.0 | 0.00 | 1.62 | 1.62 | 93 | 1013.9 |
| 20260510035932 | 68 | 48 | 0.0 | 2.0 | 0.00 | 1.62 | 1.62 | 93 | 1013.9 |
| 20260510035430 | 68 | 120 | 0.0 | 2.0 | 0.00 | 1.62 | 1.62 | 93 | 1014.0 |
| 20260510035158 | 68 | 120 | 0.0 | 2.0 | 0.00 | 1.62 | 1.62 | 93 | 1014.0 |
| 20260510034426 | 68 | 120 | 1.0 | 6.0 | 0.00 | 1.62 | 1.62 | 93 | 1013.8 |
| 20260510033920 | 68 | 148 | 2.0 | 9.0 | 0.00 | 1.62 | 1.62 | 93 | 1013.8 |
| 20260510033417 | 68 | 159 | 2.0 | 9.0 | 0.00 | 1.62 | 1.62 | 93 | 1013.8 |
| 20260510032917 | 68 | 229 | 2.0 | 9.0 | 0.00 | 1.62 | 1.62 | 93 | 1013.7 |
| 20260510032414 | 68 | 178 | 2.0 | 9.0 | 0.00 | 1.62 | 1.62 | 93 | 1013.6 |
| 20260510031914 | 68 | 178 | 2.0 | 8.0 | 0.00 | 1.62 | 1.62 | 93 | 1013.7 |
| 20260510031408 | 68 | 151 | 2.0 | 9.0 | 0.00 | 1.62 | 1.62 | 93 | 1013.8 |
| 20260510030914 | 68 | 140 | 3.0 | 10.0 | 0.00 | 1.62 | 1.62 | 93 | 1013.6 |
| 20260510030909 | 68 | 179 | 3.0 | 10.0 | 0.00 | 1.62 | 1.62 | 93 | 1013.7 |
| 20260510025909 | 68 | 160 | 4.0 | 10.0 | 0.00 | 1.62 | 1.62 | 93 | 1013.4 |
| 20260510025406 | 68 | 155 | 4.0 | 10.0 | 0.00 | 1.62 | 1.62 | 93 | 1013.3 |
| 20260510024906 | 68 | 140 | 4.0 | 11.0 | 0.00 | 1.62 | 1.62 | 94 | 1013.4 |
| 20260510024632 | 68 | 148 | 4.0 | 11.0 | 0.00 | 1.65 | 1.62 | 94 | 1013.2 |
| 20260510023859 | 68 | 159 | 4.0 | 10.0 | 0.00 | 1.73 | 1.62 | 94 | 1013.2 |
| 20260510023636 | 68 | 200 | 4.0 | 10.0 | 0.00 | 1.74 | 1.62 | 94 | 1013.2 |
| 20260510022901 | 68 | 186 | 4.0 | 8.0 | 0.00 | 1.75 | 1.62 | 94 | 1013.5 |
| 20260510022402 | 68 | 182 | 3.0 | 9.0 | 0.00 | 1.75 | 1.62 | 94 | 1013.8 |
| 20260510021901 | 68 | 157 | 2.0 | 9.0 | 0.00 | 1.75 | 1.62 | 94 | 1013.8 |
| 20260510021355 | 68 | 166 | 3.0 | 8.0 | 0.00 | 1.75 | 1.62 | 94 | 1013.6 |
| 20260510020855 | 68 | 170 | 2.0 | 8.0 | 0.00 | 1.75 | 1.62 | 94 | 1013.4 |
| 20260510020356 | 68 | 138 | 2.0 | 6.0 | 0.00 | 1.75 | 1.62 | 94 | 1013.4 |
| 20260510015856 | 68 | 94 | 3.0 | 7.0 | 0.00 | 1.75 | 1.62 | 94 | 1013.4 |
| 20260510015626 | 68 | 163 | 3.0 | 7.0 | 0.00 | 1.75 | 1.62 | 94 | 1013.3 |
| 20260510014857 | 68 | 167 | 3.0 | 7.0 | 0.00 | 1.75 | 1.62 | 94 | 1013.4 |
| 20260510014351 | 68 | 150 | 2.0 | 7.0 | 0.00 | 1.75 | 1.62 | 94 | 1013.5 |
| 20260510013851 | 68 | 136 | 3.0 | 7.0 | 0.00 | 1.75 | 1.62 | 94 | 1013.6 |
| 20260510013349 | 68 | 146 | 3.0 | 6.0 | 0.00 | 1.75 | 1.62 | 94 | 1013.4 |
| 20260510012851 | 68 | 130 | 2.0 | 6.0 | 0.00 | 1.75 | 1.62 | 94 | 1013.4 |
| 20260510012353 | 68 | 134 | 2.0 | 8.0 | 0.00 | 1.75 | 1.62 | 94 | 1013.5 |
| 20260510012349 | 68 | 98 | 2.0 | 6.0 | 0.00 | 1.75 | 1.62 | 94 | 1013.4 |
| 20260510011347 | 68 | 129 | 2.0 | 8.0 | 0.00 | 1.75 | 1.62 | 94 | 1013.4 |
| 20260510010847 | 68 | 155 | 3.0 | 8.0 | 0.00 | 1.75 | 1.62 | 94 | 1013.3 |
| 20260510010617 | 68 | 151 | 4.0 | 8.0 | 0.00 | 1.75 | 1.62 | 94 | 1013.1 |
| 20260510005846 | 68 | 144 | 4.0 | 8.0 | 0.00 | 1.75 | 1.62 | 94 | 1013.1 |
| 20260510005345 | 68 | 150 | 5.0 | 9.0 | 0.00 | 1.75 | 1.62 | 94 | 1013.2 |
| 20260510004845 | 68 | 137 | 4.0 | 9.0 | 0.00 | 1.75 | 1.62 | 94 | 1013.2 |
| 20260510004616 | 68 | 172 | 2.0 | 6.0 | 0.00 | 1.75 | 1.62 | 94 | 1013.6 |
| 20260510003841 | 68 | 106 | 0.0 | 2.0 | 0.00 | 1.75 | 1.62 | 94 | 1013.6 |
| 20260510003342 | 68 | 106 | 0.0 | 2.0 | 0.00 | 1.75 | 1.62 | 95 | 1013.5 |
| 20260510003113 | 68 | 106 | 0.0 | 2.0 | 0.00 | 1.75 | 1.62 | 95 | 1013.4 |
| 20260510002341 | 68 | 106 | 0.0 | 2.0 | 0.00 | 1.75 | 1.62 | 95 | 1013.5 |
| 20260510001838 | 68 | 106 | 0.0 | 2.0 | 0.00 | 1.75 | 1.62 | 94 | 1013.3 |
| 20260510001340 | 68 | 106 | 1.0 | 3.0 | 0.00 | 1.75 | 1.62 | 94 | 1013.3 |
| 20260510000832 | 68 | 106 | 1.0 | 4.0 | 0.00 | 1.75 | 1.62 | 95 | 1013.1 |
| 20260510000330 | 68 | 106 | 1.0 | 4.0 | 0.00 | 1.75 | 1.62 | 95 | 1013.1 |
| 20260509235830 | 68 | 18 | 1.0 | 8.0 | 0.00 | 1.75 | 1.62 | 94 | 1013.1 |
| 20260509235327 | 68 | 83 | 2.0 | 8.0 | 0.00 | 1.75 | 1.62 | 95 | 1013.1 |
| 20260509234827 | 68 | 89 | 4.0 | 8.0 | 0.00 | 1.75 | 1.62 | 95 | 1012.8 |
| 20260509234324 | 68 | 126 | 4.0 | 8.0 | 0.00 | 1.75 | 1.62 | 95 | 1012.5 |
| 20260509233824 | 68 | 96 | 3.0 | 8.0 | 0.00 | 1.75 | 1.62 | 95 | 1012.5 |
| 20260509233555 | 68 | 159 | 4.0 | 8.0 | 0.00 | 1.75 | 1.62 | 95 | 1012.4 |
| 20260509233055 | 68 | 132 | 4.0 | 8.0 | 0.00 | 1.75 | 1.62 | 95 | 1012.3 |
| 20260509232551 | 68 | 135 | 3.0 | 8.0 | 0.00 | 1.75 | 1.62 | 95 | 1012.3 |
| 20260509231821 | 67 | 120 | 3.0 | 7.0 | 0.00 | 1.75 | 1.62 | 95 | 1012.3 |
| 20260509231316 | 67 | 136 | 2.0 | 7.0 | 0.00 | 1.75 | 1.62 | 95 | 1012.2 |
| 20260509230816 | 67 | 126 | 2.0 | 5.0 | 0.00 | 1.75 | 1.62 | 95 | 1012.2 |
| 20260509230313 | 67 | 91 | 2.0 | 6.0 | 0.00 | 1.75 | 1.62 | 95 | 1011.9 |
| 20260509230051 | 67 | 101 | 4.0 | 8.0 | 0.01 | 1.75 | 1.62 | 95 | 1011.9 |
| 20260509225812 | 67 | 92 | 3.0 | 7.0 | 0.01 | 1.75 | 1.62 | 95 | 1011.9 |
| 20260509224809 | 67 | 103 | 4.0 | 9.0 | 0.03 | 1.75 | 1.62 | 95 | 1011.5 |
| 20260509224309 | 67 | 83 | 4.0 | 9.0 | 0.08 | 1.75 | 1.62 | 95 | 1011.4 |
| 20260509223809 | 67 | 136 | 4.0 | 9.0 | 0.12 | 1.75 | 1.62 | 95 | 1011.3 |
| 20260509223544 | 67 | 107 | 4.0 | 9.0 | 0.13 | 1.75 | 1.62 | 95 | 1011.7 |
| 20260509222805 | 67 | 98 | 4.0 | 9.0 | 0.15 | 1.75 | 1.62 | 95 | 1011.8 |
| 20260509222307 | 67 | 123 | 4.0 | 9.0 | 0.17 | 1.75 | 1.62 | 95 | 1011.9 |
| 20260509221805 | 67 | 90 | 5.0 | 10.0 | 0.19 | 1.75 | 1.62 | 94 | 1011.8 |
| 20260509221305 | 67 | 92 | 6.0 | 13.0 | 0.22 | 1.76 | 1.62 | 94 | 1012.0 |
| 20260509220805 | 67 | 92 | 6.0 | 13.0 | 0.24 | 1.76 | 1.62 | 95 | 1011.9 |
| 20260509220308 | 67 | 107 | 5.0 | 9.0 | 0.25 | 1.76 | 1.62 | 95 | 1011.8 |
| 20260509220032 | 67 | 105 | 5.0 | 9.0 | 0.25 | 1.75 | 1.62 | 95 | 1012.0 |
| 20260509215305 | 67 | 107 | 5.0 | 9.0 | 0.27 | 1.75 | 1.61 | 95 | 1012.2 |
| 20260509214801 | 67 | 94 | 3.0 | 8.0 | 0.29 | 1.73 | 1.59 | 94 | 1012.3 |
| 20260509214302 | 67 | 132 | 3.0 | 7.0 | 0.28 | 1.68 | 1.54 | 95 | 1012.3 |
| 20260509213802 | 67 | 92 | 3.0 | 7.0 | 0.26 | 1.65 | 1.51 | 94 | 1012.3 |
| 20260509213302 | 67 | 165 | 3.0 | 7.0 | 0.27 | 1.64 | 1.49 | 94 | 1012.4 |
| 20260509212757 | 67 | 189 | 4.0 | 8.0 | 0.28 | 1.67 | 1.47 | 94 | 1012.7 |
| 20260509212257 | 67 | 145 | 4.0 | 9.0 | 0.28 | 1.65 | 1.45 | 94 | 1012.5 |
| 20260509212029 | 67 | 161 | 4.0 | 9.0 | 0.26 | 1.63 | 1.43 | 94 | 1012.4 |
| 20260509211257 | 67 | 114 | 3.0 | 9.0 | 0.25 | 1.60 | 1.41 | 94 | 1012.4 |
| 20260509210758 | 67 | 78 | 3.0 | 9.0 | 0.27 | 1.58 | 1.39 | 94 | 1012.3 |
| 20260509210258 | 67 | 11 | 5.0 | 10.0 | 0.31 | 1.57 | 1.37 | 94 | 1012.4 |
| 20260509205752 | 67 | 92 | 6.0 | 10.0 | 0.37 | 1.56 | 1.37 | 94 | 1012.2 |
| 20260509205252 | 67 | 69 | 6.0 | 10.0 | 0.49 | 1.54 | 1.35 | 94 | 1012.1 |
| 20260509204752 | 67 | 138 | 5.0 | 9.0 | 0.54 | 1.50 | 1.30 | 94 | 1012.5 |
| 20260509204524 | 67 | 114 | 5.0 | 9.0 | 0.58 | 1.46 | 1.27 | 94 | 1012.8 |
| 20260509203752 | 67 | 121 | 5.0 | 9.0 | 0.57 | 1.44 | 1.24 | 94 | 1012.8 |
| 20260509203252 | 67 | 128 | 4.0 | 9.0 | 0.56 | 1.41 | 1.21 | 94 | 1012.8 |
| 20260509202745 | 67 | 128 | 4.0 | 9.0 | 0.56 | 1.42 | 1.19 | 94 | 1013.0 |
| 20260509202246 | 67 | 56 | 5.0 | 12.0 | 0.63 | 1.40 | 1.18 | 94 | 1013.0 |
| 20260509201747 | 67 | 109 | 5.0 | 12.0 | 0.66 | 1.40 | 1.17 | 94 | 1013.0 |
| 20260509201247 | 67 | 117 | 3.0 | 9.0 | 0.65 | 1.38 | 1.16 | 94 | 1012.9 |
| 20260509200746 | 67 | 107 | 2.0 | 6.0 | 0.62 | 1.34 | 1.12 | 94 | 1013.1 |
| 20260509200518 | 67 | 138 | 3.0 | 7.0 | 0.60 | 1.29 | 1.07 | 94 | 1013.3 |
| 20260509195740 | 67 | 159 | 4.0 | 8.0 | 0.59 | 1.22 | 1.00 | 94 | 1013.2 |
| 20260509195246 | 67 | 112 | 0.0 | 5.0 | 0.49 | 0.99 | 0.76 | 94 | 1013.1 |
| 20260509195241 | 67 | 112 | 3.0 | 8.0 | 0.52 | 1.08 | 0.86 | 94 | 1012.9 |
| 20260509194240 | 67 | 12 | 0.0 | 5.0 | 0.48 | 0.91 | 0.68 | 94 | 1013.6 |
| 20260509193739 | 67 | 12 | 1.0 | 7.0 | 0.47 | 0.90 | 0.68 | 94 | 1013.5 |
| 20260509193240 | 67 | 65 | 4.0 | 11.0 | 0.45 | 0.88 | 0.66 | 94 | 1013.0 |
| 20260509192732 | 67 | 88 | 3.0 | 11.0 | 0.42 | 0.85 | 0.63 | 93 | 1012.4 |
| 20260509192233 | 67 | 98 | 1.0 | 8.0 | 0.34 | 0.77 | 0.55 | 93 | 1012.7 |
| 20260509192002 | 67 | 29 | 1.0 | 8.0 | 0.31 | 0.74 | 0.51 | 93 | 1013.0 |
| 20260509191232 | 67 | 100 | 3.0 | 8.0 | 0.30 | 0.75 | 0.50 | 93 | 1012.9 |
| 20260509190733 | 67 | 93 | 5.0 | 12.0 | 0.29 | 0.75 | 0.49 | 93 | 1012.7 |
| 20260509190231 | 67 | 124 | 6.0 | 12.0 | 0.25 | 0.72 | 0.46 | 92 | 1012.8 |
| 20260509185725 | 67 | 137 | 5.0 | 12.0 | 0.20 | 0.71 | 0.40 | 92 | 1012.7 |
| 20260509185454 | 68 | 119 | 5.0 | 12.0 | 0.13 | 0.66 | 0.34 | 91 | 1012.8 |
| 20260509184722 | 68 | 148 | 6.0 | 13.0 | 0.07 | 0.62 | 0.27 | 91 | 1012.9 |
| 20260509184221 | 68 | 115 | 6.0 | 13.0 | 0.00 | 0.57 | 0.20 | 91 | 1012.9 |
| 20260509183719 | 68 | 139 | 6.0 | 14.0 | 0.00 | 0.61 | 0.20 | 91 | 1013.0 |
| 20260509183219 | 68 | 119 | 7.0 | 14.0 | 0.00 | 0.62 | 0.20 | 91 | 1012.9 |
| 20260509182717 | 68 | 123 | 5.0 | 10.0 | 0.00 | 0.67 | 0.20 | 90 | 1013.1 |
| 20260509182215 | 68 | 115 | 3.0 | 8.0 | 0.00 | 0.69 | 0.20 | 90 | 1013.2 |
| 20260509181715 | 68 | 154 | 4.0 | 10.0 | 0.00 | 0.77 | 0.20 | 90 | 1013.3 |
| 20260509181213 | 68 | 167 | 5.0 | 10.0 | 0.00 | 0.82 | 0.20 | 89 | 1013.2 |
| 20260509180714 | 68 | 113 | 5.0 | 12.0 | 0.00 | 0.88 | 0.20 | 89 | 1013.1 |
| 20260509180210 | 68 | 169 | 6.0 | 12.0 | 0.00 | 0.93 | 0.20 | 89 | 1013.3 |
| 20260509175710 | 68 | 123 | 5.0 | 12.0 | 0.00 | 0.99 | 0.20 | 89 | 1013.2 |
| 20260509175208 | 68 | 108 | 5.0 | 9.0 | 0.00 | 1.16 | 0.20 | 89 | 1013.1 |
| 20260509175058 | 68 | 128 | 6.0 | 10.0 | 0.00 | 1.55 | 0.20 | 89 | 1012.8 |
| 20260509174946 | 68 | 138 | 6.0 | 10.0 | 0.00 | 1.54 | 0.20 | 89 | 1012.9 |
| 20260509173709 | 68 | 113 | 5.0 | 9.0 | 0.00 | 1.56 | 0.20 | 89 | 1012.8 |
| 20260509173202 | 68 | 122 | 4.0 | 9.0 | 0.00 | 1.59 | 0.20 | 89 | 1012.9 |
| 20260509172658 | 68 | 107 | 4.0 | 9.0 | 0.00 | 1.66 | 0.20 | 90 | 1012.8 |
| 20260509172159 | 68 | 106 | 5.0 | 9.0 | 0.00 | 1.69 | 0.20 | 89 | 1013.0 |
| 20260509171657 | 68 | 93 | 4.0 | 9.0 | 0.00 | 1.70 | 0.20 | 89 | 1012.9 |
| 20260509171157 | 69 | 94 | 3.0 | 7.0 | 0.00 | 1.88 | 0.20 | 89 | 1013.1 |
| 20260509170650 | 69 | 71 | 4.0 | 10.0 | 0.00 | 1.92 | 0.20 | 89 | 1013.1 |
| 20260509170148 | 69 | 87 | 5.0 | 13.0 | 0.00 | 1.95 | 0.20 | 89 | 1012.9 |
| 20260509165649 | 69 | 82 | 5.0 | 13.0 | 0.00 | 1.98 | 0.20 | 88 | 1012.9 |
| 20260509165151 | 69 | 113 | 5.0 | 13.0 | 0.00 | 2.00 | 0.20 | 88 | 1012.9 |
| 20260509164650 | 69 | 157 | 7.0 | 13.0 | 0.00 | 2.03 | 0.20 | 88 | 1013.0 |
| 20260509164151 | 69 | 111 | 7.0 | 12.0 | 0.00 | 2.07 | 0.20 | 88 | 1013.0 |
| 20260509163642 | 69 | 91 | 5.0 | 10.0 | 0.00 | 2.16 | 0.20 | 87 | 1012.9 |
| 20260509163144 | 70 | 89 | 5.0 | 10.0 | 0.00 | 2.55 | 0.20 | 88 | 1013.2 |
| 20260509162644 | 70 | 98 | 6.0 | 12.0 | 0.00 | 2.67 | 0.20 | 88 | 1013.3 |
| 20260509162145 | 70 | 137 | 6.0 | 12.0 | 0.00 | 2.68 | 0.20 | 88 | 1013.3 |
| 20260509161914 | 70 | 167 | 6.0 | 11.0 | 0.00 | 2.69 | 0.20 | 89 | 1013.2 |
| 20260509161414 | 70 | 46 | 6.0 | 13.0 | 0.00 | 2.70 | 0.20 | 90 | 1013.3 |
| 20260509160643 | 69 | 115 | 6.0 | 13.0 | 0.00 | 2.70 | 0.20 | 89 | 1013.4 |
| 20260509160139 | 69 | 108 | 6.0 | 10.0 | 0.00 | 2.70 | 0.20 | 89 | 1013.6 |
| 20260509155637 | 69 | 108 | 6.0 | 10.0 | 0.00 | 2.70 | 0.20 | 89 | 1013.7 |
| 20260509155138 | 69 | 125 | 6.0 | 11.0 | 0.00 | 2.70 | 0.20 | 90 | 1013.6 |
| 20260509154639 | 69 | 111 | 6.0 | 11.0 | 0.00 | 2.70 | 0.20 | 91 | 1013.4 |
| 20260509154139 | 68 | 87 | 4.0 | 9.0 | 0.00 | 2.70 | 0.20 | 91 | 1013.3 |
| 20260509153632 | 68 | 82 | 5.0 | 9.0 | 0.00 | 2.72 | 0.20 | 92 | 1013.2 |
| 20260509153133 | 68 | 104 | 5.0 | 8.0 | 0.00 | 2.87 | 0.20 | 92 | 1013.1 |
| 20260509152631 | 67 | 102 | 4.0 | 10.0 | 0.00 | 2.93 | 0.20 | 92 | 1013.1 |
| 20260509152132 | 67 | 105 | 5.0 | 10.0 | 0.00 | 2.94 | 0.20 | 93 | 1013.1 |
| 20260509151632 | 67 | 75 | 6.0 | 10.0 | 0.00 | 2.95 | 0.20 | 93 | 1013.3 |
| 20260509151131 | 67 | 125 | 5.0 | 10.0 | 0.00 | 2.95 | 0.20 | 93 | 1013.4 |
| 20260509150632 | 67 | 153 | 4.0 | 8.0 | 0.00 | 2.96 | 0.20 | 93 | 1013.3 |
| 20260509150130 | 67 | 112 | 3.0 | 8.0 | 0.00 | 2.97 | 0.20 | 93 | 1013.2 |
| 20260509145630 | 67 | 105 | 4.0 | 8.0 | 0.00 | 2.98 | 0.20 | 94 | 1012.9 |
| 20260509145131 | 67 | 82 | 4.0 | 8.0 | 0.00 | 3.01 | 0.20 | 94 | 1012.8 |
| 20260509144630 | 67 | 62 | 5.0 | 8.0 | 0.00 | 3.01 | 0.20 | 94 | 1012.8 |
| 20260509144131 | 67 | 101 | 3.0 | 9.0 | 0.00 | 3.02 | 0.20 | 94 | 1012.9 |
| 20260509143631 | 66 | 129 | 3.0 | 9.0 | 0.00 | 3.02 | 0.20 | 94 | 1012.9 |
| 20260509143126 | 66 | 145 | 6.0 | 14.0 | 0.00 | 3.02 | 0.20 | 93 | 1013.0 |
| 20260509142629 | 66 | 94 | 8.0 | 14.0 | 0.00 | 3.02 | 0.20 | 94 | 1012.7 |
| 20260509142126 | 66 | 69 | 5.0 | 13.0 | 0.00 | 3.02 | 0.20 | 94 | 1012.7 |
| 20260509141626 | 66 | 84 | 4.0 | 8.0 | 0.00 | 3.02 | 0.20 | 94 | 1012.9 |
| 20260509141127 | 66 | 121 | 4.0 | 11.0 | 0.01 | 3.02 | 0.20 | 94 | 1012.8 |
| 20260509140628 | 66 | 82 | 4.0 | 11.0 | 0.01 | 3.02 | 0.20 | 94 | 1013.1 |
| 20260509140126 | 67 | 92 | 4.0 | 9.0 | 0.01 | 3.02 | 0.20 | 94 | 1012.9 |
| 20260509135858 | 67 | 100 | 4.0 | 8.0 | 0.02 | 3.02 | 0.20 | 94 | 1012.8 |
| 20260509135127 | 67 | 88 | 3.0 | 7.0 | 0.05 | 3.02 | 0.20 | 94 | 1012.9 |
| 20260509134627 | 67 | 82 | 3.0 | 8.0 | 0.05 | 3.02 | 0.20 | 94 | 1012.9 |
| 20260509134129 | 67 | 96 | 3.0 | 9.0 | 0.05 | 3.02 | 0.20 | 94 | 1012.8 |
| 20260509133625 | 67 | 74 | 3.0 | 9.0 | 0.06 | 3.02 | 0.20 | 94 | 1012.7 |
| 20260509133126 | 67 | 69 | 3.0 | 7.0 | 0.06 | 3.02 | 0.20 | 94 | 1012.6 |
| 20260509132900 | 66 | 33 | 2.0 | 6.0 | 0.13 | 3.02 | 0.20 | 94 | 1012.5 |
| 20260509132624 | 67 | 86 | 3.0 | 7.0 | 0.12 | 3.02 | 0.20 | 95 | 1012.5 |
| 20260509131629 | 66 | 71 | 2.0 | 7.0 | 0.15 | 3.01 | 0.19 | 94 | 1012.6 |
| 20260509131623 | 66 | 81 | 2.0 | 7.0 | 0.15 | 3.02 | 0.20 | 94 | 1012.6 |
| 20260509130617 | 66 | 105 | 2.0 | 6.0 | 0.15 | 3.01 | 0.19 | 94 | 1012.6 |